Probability
0 0 0 0 0 0 0 0 0 0 0 0 0 0 0 0 0 0 0 0 0 0 0 0 0 0 0 0 0 0 0 0 0 0 0 0 0 0 0 0 0 0 0 0
0 0 0 0 0 0 0 0 0 0 0 0 0 0 0 0 0 0 0 0 0 0 0 0 0 0 0 0 0 0 0 0 0 0 0 0 0 0 0 0 0 0 0 0
0 0 0 0 0 0 0 0 0 0 0 0 0 0 0 0 0 0 0 0 0 0 0 0 0 0 0 0 0 0 0 0 0 0 0 0 0 0 0 0 0 0 0 0
0 0 0 0 0 0 0 0 0 0 0 0 0 0 0 0 0 0 0 0 0 0 0 0 0 0 0 0 0 0 0 0 0 0 0 0 0 0 0 0 0 0 0 0
0 0 0 0 0 0 0 0 0 0 0 0 0 0 0 0 0 0 0 0 0 0 0 0 0 0 0 0 0 0 0 0 0 0 0 0 0 0 0 0 0 0 0 0
0 0 0 0 0 0 0 0 0 0 0 0 0 0 0 0 0 0 0 0 0 0 0 0 0 0 0 0 0 0 0 0 0 0 0 0 0 0 0 0 0 0 0 0
0 0 0 0 0 0 0 0 0 0 0 0 0 0 0 0 0 0 0 0 0 0 0 0 0 0 0 0 0 0 0 0 0 0 0 0 0 0 0 0 0 0 0 0
0 0 0 0 0 0 0 0 0 0 0 0 0 0 0 0 0 0 0 0 0 0 0 0 0 0 0 0 0 0 0 0 0 0 0 0 0 0 0 0 0 0 0 0
0 0 0 0 0 0 0 0 0 0 0 0 0 0 0 0 0 0 0 0 0 0 0 0 0 0 0 0 0 0 0 0 0 0 0 0 0 0 0 0 0 0 0 0
0 0 0 0 0 0 0 0 0 0 0 0 0 0 0 0 0 0 0 0 0 0 0 0 0 0 0 0 0 0 0 0 0 0 0 0 0 0 0 0 0 0 0 0
0 0 0 0 0 0 0 0 0 0 0 0 0 0 0 0 0 0 0 0 0 0 0 0 0 0 0 0 0 0 0 0 0 0 0 0 0 0 0 0 0 0 0 0
0 0 0 0 0 0 0 0 0 0 0 0 0 0 0 0 0 0 0 0 0 0 0 0 0 0 0 0 0 0 0 0 0 0 0 0 0 0 0 0 0 0 0 0
0 0 0 0 0 0 0 0 0 0 0 0 0 0 0 0 0 0 0 0 0 0 0 0 0 0 0 0 0 0 0 0 0 0 0 0 0 0 0 0 0 0 0 0
0 0 0 0 0 0 0 0 0 0 0 0 0 0 0 0 0 0 0 0 0 0 0 0 0 0 0 0 0 0 0 0 0 0 0 0 0 0 0 0 0 0 0 0
0 0 0 0 0 0 0 0 0 0 0 0 0 0 0 0 0 0 0 0 0 0 0 0 0 0 0 0 0 0 0 0 0 0 0 0 0 0 0 0 0 0 0 0
0 0 0 0 0 0 0 0 0 0 0 0 0 0 0 0 0 0 0 0 0 0 0 0 0 0 0 0 0 0 0 0 0 0 0 0 0 0 0 0 0 0 0 0
0 0 0 0 0 0 0 0 0 0 0 0 0 0 0 0 0 0 0 0 0 0 0 0 0 0 0 0 0 0 0 0 0 0 0 0 0 0 0 0 0 0 0 0
0 0 0 0 0 0 0 0 0 0 0 0 0 0 0 0 0 0 0 0 0 0 0 0 0 0 0 0 0 0 0 0 0 0 0 0 0 0 0 0 0 0 0 0
0 0 0 0 0 0 0 0 0 0 0 0 0 0 0 0 0 0 0 0 0 0 0 0 0 0 0 0 0 0 0 0 0 0 0 0 0 0 0 0 0 0 0 0
0 0 0 0 0 0 0 0 0 0 0 0 0 0 0 0 0 0 0 0 0 0 0 0 0 0 0 0 0 0 0 0 0 0 0 0 0 0 0 0 0 0 0 0
0 0 0 0 0 0 0 0 0 0 0 0 0 0 0 0 0 0 0 0 0 0 0 0 0 0 0 0 0 0 0 0 0 0 0 0 0 0 0 0 0 0 0 0
0 0 0 0 0 0 0 0 0 0 0 0 0 0 0 0 0 0 0 0 0 0 0 0 0 0 0 0 0 0 0 0 0 0 0 0 0 0 0 0 0 0 0 0
0 0 0 0 0 0 0 0 0 0 0 0 0 0 0 0 0 0 0 0 0 0 0 0 0 0 0 0 0 0 0 0 0 0 0 0 0 0 0 0 0 0 0 0
0 0 0 0 0 0 0 0 0 0 0 0 0 0 0 0 0 0 0 0 0 0 0 0 0 0 0 0 0 0 0 0 0 0 0 0 0 0 0 0 0 0 0 0
0 0 0 0 0 0 0 0 0 0 0 0 0 0 0 0 0 0 0 0 0 0 0 0 0 0 0 0 0 0 0 0 0 0 0 0 0 0 0 0 0 0 0 0
0 0 0 0 0 0 0 0 0 0 0 0 0 0 0 0 0 0 0 0 0 0 0 0 0 0 0 0 0 0 0 0 0 0 0 0 0 0 0 0 0 0 0 0
0 0 0 0 0 0 0 0 0 0 0 0 0 0 0 0 0 0 0 0 0 0 0 0 0 0 0 0 0 0 0 0 0 0 0 0 0 0 0 0 0 0 0 0
Height
5717 5719 5721 5724 5726 5727 5728 5730 5730 5733 5733 5734 5731 5729 5728 5727 5725 5724 5722 5720 5718 5715 5713 5710 5708 5705 5702 5700 5697 5694 5691 5688 5685 5681 5678 5674 5670 5666 5662 5657 5652 5647 5641 5636
5709 5711 5713 5714 5717 5719 5720 5722 5722 5723 5725 5725 5722 5721 5720 5718 5717 5715 5713 5711 5709 5706 5704 5701 5698 5696 5693 5690 5687 5684 5681 5678 5674 5670 5667 5663 5659 5654 5650 5645 5640 5634 5629 5622
5701 5703 5703 5706 5711 5712 5713 5714 5714 5714 5717 5715 5714 5713 5712 5710 5708 5706 5704 5702 5699 5697 5694 5691 5688 5686 5683 5680 5677 5674 5670 5667 5663 5659 5655 5651 5647 5642 5638 5632 5627 5621 5615 5609
5691 5694 5694 5703 5704 5704 5704 5706 5706 5706 5707 5706 5705 5704 5703 5701 5698 5697 5695 5692 5689 5687 5684 5681 5678 5675 5672 5669 5666 5663 5659 5656 5652 5648 5644 5639 5635 5630 5625 5619 5614 5608 5602 5595
5682 5683 5687 5693 5695 5696 5696 5697 5698 5697 5697 5696 5695 5694 5694 5692 5689 5687 5685 5682 5680 5677 5674 5671 5668 5665 5662 5659 5656 5652 5649 5645 5641 5636 5632 5627 5623 5617 5612 5606 5600 5594 5587 5580
5674 5675 5678 5686 5687 5687 5687 5688 5690 5688 5688 5687 5686 5685 5686 5682 5680 5677 5675 5672 5670 5667 5664 5661 5658 5655 5652 5648 5645 5641 5637 5633 5629 5624 5620 5615 5610 5604 5598 5592 5586 5579 5572 5564
5665 5666 5671 5677 5678 5678 5679 5682 5681 5679 5678 5678 5677 5676 5675 5672 5670 5668 5665 5663 5660 5657 5654 5651 5647 5644 5641 5637 5634 5630 5626 5621 5617 5612 5607 5602 5597 5591 5585 5578 5572 5565 5557 5550
5656 5658 5666 5669 5669 5670 5671 5671 5670 5669 5669 5668 5667 5666 5664 5662 5660 5658 5655 5653 5649 5647 5643 5640 5637 5633 5630 5626 5622 5618 5614 5609 5605 5599 5594 5589 5583 5577 5570 5563 5556 5549 5541 5534
5650 5655 5658 5659 5660 5660 5660 5661 5660 5659 5659 5658 5657 5656 5654 5652 5650 5648 5645 5642 5639 5636 5633 5629 5626 5622 5619 5615 5610 5606 5602 5597 5592 5587 5581 5575 5569 5563 5556 5548 5540 5533 5525 5517
5641 5645 5648 5649 5649 5650 5650 5650 5650 5650 5649 5648 5647 5646 5644 5642 5640 5637 5634 5631 5628 5625 5622 5618 5614 5611 5607 5603 5598 5594 5589 5584 5579 5573 5568 5562 5555 5548 5540 5533 5524 5517 5508 5500
5631 5636 5637 5639 5640 5640 5640 5640 5640 5640 5639 5638 5637 5635 5633 5631 5629 5626 5623 5620 5617 5614 5610 5607 5603 5599 5595 5591 5586 5581 5576 5571 5566 5560 5554 5548 5541 5533 5525 5517 5508 5500 5491 5483
5624 5627 5627 5629 5630 5629 5629 5630 5630 5629 5629 5627 5626 5625 5623 5620 5618 5615 5612 5609 5606 5602 5599 5595 5591 5587 5583 5578 5573 5569 5563 5558 5552 5546 5540 5533 5527 5520 5511 5502 5493 5483 5474 5464
5614 5615 5616 5617 5618 5619 5619 5619 5619 5618 5618 5617 5616 5614 5611 5609 5607 5604 5601 5598 5594 5591 5587 5583 5579 5575 5570 5565 5560 5555 5550 5544 5538 5532 5525 5518 5511 5504 5497 5489 5479 5468 5458 5448
5602 5603 5604 5606 5607 5608 5608 5608 5608 5607 5607 5606 5604 5602 5600 5598 5595 5592 5589 5586 5583 5579 5575 5571 5567 5562 5557 5552 5547 5542 5536 5530 5524 5517 5510 5502 5495 5487 5479 5471 5464 5455 5444 5432
5591 5592 5594 5595 5596 5597 5597 5597 5597 5596 5596 5594 5593 5591 5589 5586 5584 5581 5578 5574 5570 5566 5562 5558 5554 5549 5544 5539 5534 5528 5522 5516 5509 5502 5494 5487 5479 5470 5462 5453 5445 5437 5428 5417
5580 5581 5582 5584 5585 5586 5586 5586 5585 5585 5584 5582 5581 5579 5577 5574 5572 5569 5566 5562 5558 5554 5550 5545 5541 5536 5531 5525 5520 5514 5507 5500 5493 5486 5479 5471 5462 5454 5445 5436 5427 5419 5409 5400
5568 5570 5572 5573 5574 5574 5574 5574 5573 5572 5572 5570 5569 5567 5564 5562 5559 5556 5553 5549 5545 5541 5537 5532 5528 5522 5517 5511 5506 5499 5493 5486 5478 5470 5462 5454 5445 5437 5428 5419 5410 5401 5392 5382
5557 5559 5560 5561 5562 5562 5562 5561 5561 5560 5559 5558 5556 5554 5552 5549 5546 5543 5540 5536 5532 5528 5524 5519 5514 5509 5503 5497 5491 5484 5477 5470 5462 5454 5446 5437 5428 5420 5411 5402 5393 5384 5376 5366
5546 5547 5549 5549 5549 5549 5549 5549 5548 5547 5546 5545 5543 5541 5539 5536 5533 5530 5527 5523 5519 5515 5510 5505 5500 5495 5489 5482 5476 5469 5461 5454 5446 5438 5429 5420 5412 5403 5394 5385 5376 5368 5359 5350
5534 5535 5536 5536 5537 5537 5536 5536 5535 5534 5533 5532 5530 5528 5525 5523 5520 5517 5513 5509 5505 5501 5496 5491 5486 5480 5474 5467 5460 5453 5445 5437 5429 5421 5412 5404 5395 5387 5378 5369 5360 5351 5342 5333
5522 5523 5523 5523 5524 5524 5523 5523 5522 5521 5520 5518 5517 5515 5512 5510 5507 5503 5500 5496 5491 5487 5482 5477 5471 5465 5458 5451 5444 5436 5429 5420 5412 5403 5395 5387 5379 5370 5362 5353 5344 5336 5327 5318
5509 5510 5510 5511 5511 5511 5511 5510 5509 5508 5507 5505 5503 5501 5499 5496 5493 5489 5486 5482 5477 5472 5467 5462 5455 5449 5442 5435 5428 5420 5412 5403 5395 5387 5378 5370 5362 5354 5346 5337 5329 5321 5312 5304
5497 5497 5498 5498 5498 5498 5498 5497 5496 5495 5494 5492 5490 5488 5485 5482 5479 5475 5472 5467 5462 5457 5452 5446 5440 5433 5426 5419 5412 5403 5395 5387 5378 5370 5362 5353 5345 5338 5330 5322 5314 5306 5299 5291
5484 5485 5485 5486 5486 5485 5485 5484 5483 5482 5481 5479 5476 5474 5471 5468 5465 5461 5457 5452 5447 5442 5437 5430 5424 5417 5410 5403 5395 5387 5379 5370 5362 5354 5345 5337 5330 5322 5315 5308 5300 5293 5286 5279
5472 5473 5473 5473 5473 5473 5472 5471 5470 5469 5467 5465 5462 5460 5457 5454 5450 5447 5442 5438 5433 5427 5421 5415 5408 5401 5394 5387 5379 5371 5363 5355 5346 5338 5331 5324 5316 5309 5302 5294 5287 5281 5274 5267
5460 5461 5461 5461 5460 5460 5459 5458 5457 5455 5453 5451 5449 5446 5443 5439 5436 5432 5427 5423 5417 5412 5406 5400 5393 5386 5379 5372 5364 5357 5349 5341 5333 5325 5318 5311 5304 5296 5289 5283 5276 5269 5263 5257
5448 5448 5448 5448 5447 5447 5446 5445 5443 5441 5439 5437 5435 5432 5428 5425 5421 5417 5413 5408 5403 5397 5391 5385 5378 5372 5365 5358 5350 5343 5336 5328 5321 5314 5307 5299 5292 5285 5278 5272 5265 5259 5253 5246
Wind_Speed
37 36 35 34 34 34 35 35 36 34 34 33 36 38 38 38 38 38 38 37 37 37 37 38 37 38 38 39 39 39 40 41 41 42 43 44 45 46 47 48 50 51 53 54
38 37 37 37 35 34 34 34 35 36 35 34 37 37 38 39 39 38 38 38 38 38 38 38 38 39 39 40 40 41 41 42 43 43 44 45 46 47 48 50 51 52 54 55
38 38 39 38 34 35 35 34 35 36 34 35 37 37 38 39 39 39 39 39 38 38 38 39 39 39 40 41 42 42 43 43 43 44 45 46 47 48 50 51 52 53 55 57
40 39 40 35 33 34 34 34 34 35 35 36 38 37 38 39 39 39 39 39 39 39 39 40 40 41 41 41 42 43 43 44 45 45 46 47 48 49 51 52 53 55 57 59
41 41 39 36 34 33 35 34 33 34 34 36 37 38 38 38 39 39 39 39 40 40 40 41 41 41 41 42 43 44 44 45 45 46 47 48 49 51 52 54 55 57 59 61
40 41 39 35 34 34 35 35 32 34 35 36 37 38 37 37 38 39 39 39 40 41 41 41 41 41 42 43 44 44 45 46 46 48 49 49 50 52 53 55 56 58 60 61
40 40 39 36 35 35 35 34 34 35 36 37 37 37 37 38 39 39 39 40 40 41 41 41 41 42 43 43 44 45 46 47 48 49 49 50 52 53 55 56 58 60 61 61
41 41 37 35 36 36 35 36 36 36 36 36 37 37 37 38 39 39 40 40 41 41 42 42 43 43 44 44 45 46 46 47 48 49 50 52 53 55 56 58 60 61 62 62
41 39 36 35 35 35 36 37 37 37 36 37 37 38 39 39 40 40 41 41 41 42 43 43 44 45 45 46 46 47 48 48 49 50 51 53 55 56 58 60 61 62 63 63
39 37 36 36 36 36 37 38 38 38 38 38 39 39 39 40 40 41 42 42 43 43 43 44 45 45 46 47 48 48 49 49 50 51 53 55 56 58 59 60 62 63 64 64
39 37 37 37 37 38 39 40 40 40 40 40 40 40 40 41 41 42 43 43 44 44 45 45 45 46 47 47 48 49 49 50 51 53 55 56 57 59 60 61 63 64 65 66
38 37 38 38 38 39 40 41 41 41 40 40 40 41 42 42 42 43 43 43 44 45 45 46 46 47 47 48 49 49 50 52 53 55 56 57 59 60 61 63 64 65 67 68
38 38 40 40 40 40 40 41 41 41 41 42 42 42 42 42 43 43 44 44 45 46 47 47 47 48 49 49 50 51 52 53 55 56 58 59 61 62 62 63 65 66 68 69
40 40 41 40 40 40 41 41 41 42 43 43 43 43 43 43 43 44 45 46 46 47 47 48 49 49 50 50 51 52 54 55 57 58 60 61 63 64 65 65 66 66 67 68
40 41 41 41 41 41 41 41 42 43 43 44 44 44 44 44 45 46 46 47 47 47 48 49 49 50 51 51 53 54 56 57 59 60 62 63 64 65 66 67 68 67 67 66
40 41 41 41 42 42 42 42 43 43 43 44 45 45 45 45 46 46 47 47 47 48 49 49 50 51 52 53 54 56 57 59 61 62 63 65 66 67 67 68 68 67 67 66
39 40 40 41 41 42 43 43 44 44 45 45 45 46 46 46 46 47 47 47 48 48 49 50 51 52 53 54 56 57 59 61 62 63 65 66 67 67 68 68 67 67 66 66
40 41 41 41 42 43 44 44 45 45 45 45 45 46 46 46 47 47 48 48 48 49 50 51 52 53 55 57 58 59 61 62 63 65 67 67 67 67 67 67 67 66 65 64
40 41 41 42 43 44 44 44 44 44 44 44 44 45 46 46 47 48 48 49 49 50 51 52 54 55 57 59 60 61 62 64 65 67 67 66 66 67 67 66 65 64 63 63
40 42 43 43 44 44 44 44 44 43 43 44 45 45 46 46 47 48 49 49 50 51 53 54 56 57 59 60 61 62 64 66 67 66 66 66 66 66 65 64 63 63 62 62
41 42 43 43 43 44 44 44 44 44 44 44 45 45 46 47 47 48 49 50 51 52 54 55 57 58 60 61 62 64 65 67 66 65 65 65 65 64 63 62 62 61 61 59
42 42 42 42 43 43 44 44 44 45 45 45 46 46 47 48 48 49 50 51 52 54 55 56 58 59 61 62 63 65 66 66 65 65 65 64 63 62 61 60 59 58 57 54
40 40 41 41 41 42 42 43 44 44 45 46 46 47 48 48 49 50 51 52 53 55 56 57 59 60 62 63 64 65 64 64 64 64 63 62 61 60 59 57 56 55 53 51
38 39 40 40 40 41 41 42 43 44 44 45 46 47 47 48 49 50 52 53 54 55 57 58 59 60 62 63 63 63 63 62 62 61 60 58 57 57 55 54 53 51 49 48
38 39 39 40 40 41 42 42 43 44 45 45 46 47 48 49 50 51 52 53 55 56 57 58 59 60 61 61 62 61 61 60 59 57 55 54 54 53 52 51 49 47 46 45
39 39 39 40 41 42 42 43 43 44 45 46 47 48 49 50 51 52 53 54 55 56 57 57 58 59 59 59 58 57 56 55 54 53 52 52 51 50 49 47 46 45 44 43
39 39 40 40 41 42 43 44 44 45 46 47 47 48 49 50 51 52 53 53 54 55 56 56 57 57 57 56 54 54 53 52 51 50 50 50 50 48 47 45 44 44 43 43
Wind_Direction
250 255 258 259 261 263 265 269 272 275 277 279 280 283 287 289 290 292 294 294 295 294 294 294 293 292 292 292 293 292 292 292 292 292 292 293 294 294 295 296 297 298 299 299
250 253 256 258 260 263 265 269 272 274 277 279 279 283 286 289 291 292 293 294 294 294 294 293 292 292 292 292 292 293 293 293 292 293 293 294 295 295 296 297 297 298 299 300
250 251 255 258 263 265 266 269 272 276 278 277 279 283 286 288 290 291 292 293 294 294 294 293 292 292 292 292 293 293 293 293 293 294 294 295 295 296 297 297 298 299 300 300
248 251 254 262 264 266 268 270 273 276 277 278 280 284 286 288 289 292 293 293 293 294 294 294 293 293 293 293 294 294 294 294 295 295 295 295 296 297 297 298 299 300 301 301
248 253 257 260 264 267 270 271 274 277 278 280 282 285 286 288 290 292 292 293 293 293 294 294 294 294 294 294 294 295 295 295 295 295 296 296 297 298 299 300 300 301 302 302
249 254 258 262 265 268 271 273 276 277 279 281 284 286 288 288 289 291 292 293 293 294 294 294 294 294 294 295 295 295 296 296 296 297 297 298 299 300 300 301 302 302 303 303
250 256 259 263 266 269 272 277 276 277 280 282 285 287 288 288 289 290 291 292 293 294 294 294 294 294 295 295 296 296 296 297 298 298 299 299 300 301 301 302 303 304 304 304
251 256 262 265 267 270 274 275 277 279 281 283 284 286 287 289 290 290 292 293 293 294 294 294 294 294 295 295 296 297 297 298 299 299 299 300 301 302 302 303 304 305 305 305
253 259 264 266 268 270 271 274 277 279 281 282 284 286 288 289 290 290 292 293 293 294 294 294 295 295 295 296 296 297 298 298 299 300 300 301 302 303 304 305 305 305 306 306
254 259 264 267 268 270 272 274 276 279 281 282 284 286 288 290 291 291 292 293 293 293 294 294 295 296 296 297 298 298 298 299 300 300 301 302 303 304 305 305 306 306 306 307
256 261 264 265 267 270 271 273 275 278 281 283 285 287 289 291 292 292 293 293 294 294 294 294 295 296 297 298 298 299 299 300 301 302 302 303 304 305 306 306 307 307 308 308
259 263 264 266 267 269 271 273 275 278 280 283 285 286 288 290 291 292 292 293 294 294 295 295 296 297 298 299 299 299 300 301 302 302 303 304 305 306 306 307 308 308 309 309
257 261 263 266 267 269 271 274 277 279 280 282 284 286 288 289 290 291 292 293 293 294 294 295 296 297 298 299 299 300 301 301 302 303 304 305 305 306 307 308 308 309 309 309
256 260 262 264 267 269 272 275 277 279 280 282 284 285 287 288 290 291 291 292 294 294 294 295 296 297 298 298 299 300 301 302 303 304 304 305 306 307 308 308 309 309 310 310
256 259 262 265 267 270 272 274 276 278 280 282 283 284 285 287 289 290 291 292 293 294 294 295 296 296 297 298 300 301 302 302 303 304 305 306 307 308 309 309 310 310 310 310
258 260 263 266 269 270 272 275 276 278 280 281 282 283 284 286 287 289 290 292 293 294 294 295 295 296 298 299 300 301 302 303 304 305 306 307 308 309 309 310 311 311 311 311
259 262 264 267 269 271 273 275 275 277 278 280 282 283 284 285 286 288 291 292 293 293 294 295 296 297 298 300 301 302 303 304 305 306 307 308 308 309 310 310 311 311 312 312
260 262 265 267 269 272 273 274 275 276 278 279 281 282 283 285 287 289 290 291 292 293 294 296 297 298 299 300 302 303 304 304 305 306 307 308 308 309 310 311 311 312 312 312
260 262 265 268 271 272 273 274 275 276 277 278 280 282 283 285 287 288 290 291 292 293 294 296 297 299 300 301 302 303 304 305 306 307 308 308 309 310 311 311 311 312 312 312
263 265 267 269 271 272 272 273 275 276 278 279 281 282 284 286 287 288 290 291 292 294 295 297 298 299 301 302 303 304 305 306 307 307 308 308 309 310 311 311 311 312 312 313
265 266 268 269 270 271 272 273 274 276 278 279 281 283 284 285 287 289 290 292 293 295 296 297 299 300 301 302 303 304 305 306 307 307 308 309 309 310 311 311 312 312 313 313
265 266 267 268 268 269 271 273 274 276 278 279 281 282 284 285 287 289 291 293 294 296 297 298 299 301 302 303 304 305 306 307 307 308 309 309 310 311 311 312 312 313 314 314
265 266 267 268 269 270 271 273 274 275 277 279 280 282 284 286 288 290 291 293 295 296 297 298 300 301 302 303 305 306 307 307 308 309 309 310 310 311 312 312 313 314 314 315
266 268 269 269 270 271 272 273 274 276 278 279 281 283 285 287 289 291 292 294 295 296 298 299 301 302 303 305 306 307 308 308 309 309 310 310 311 312 312 313 313 314 314 314
268 268 269 270 271 272 273 274 276 277 279 281 283 284 286 288 290 291 293 295 296 298 299 300 301 303 305 306 307 308 308 309 310 310 311 312 313 313 313 314 314 315 315 315
268 268 269 270 271 272 273 275 277 278 280 282 284 285 287 289 291 292 294 295 297 298 300 301 303 305 306 307 308 309 310 311 311 312 313 314 314 314 314 315 315 315 316 316
268 268 269 271 272 274 275 276 277 279 281 283 285 287 289 290 292 293 295 296 298 300 302 303 304 306 307 308 308 310 311 311 312 313 314 315 315 315 315 315 315 315 316 316